Wind_Speed
5 4 4 3 3 3 2 3 3 3 2 2 2 2 2 2 3 3 3 4 5 5 5 6 6 8 9 9 9 9 9 9 9 9 9 9 9 9 9 8 8 8 7
7 6 5 5 4 3 3 3 3 3 2 2 2 2 2 2 3 3 4 5 5 5 5 6 7 8 9 9 9 9 9 10 10 10 10 10 10 10 10 10 9 9 9
9 7 7 6 5 5 4 4 3 2 2 2 2 2 3 3 3 3 3 4 4 5 5 6 7 7 7 8 8 9 9 10 10 10 11 11 11 11 11 11 11 10 10
11 10 8 7 6 6 5 3 3 2 2 2 2 2 3 3 3 3 3 4 4 4 5 5 6 6 6 6 7 7 7 8 9 10 10 11 11 12 12 12 12 12 11
13 12 10 8 8 7 5 4 3 3 3 3 2 3 3 3 3 3 3 3 3 4 4 5 5 6 6 6 6 7 7 7 7 8 9 10 11 11 11 12 12 12 12
14 13 11 10 9 8 7 5 4 3 3 3 2 2 3 3 3 3 3 3 3 3 3 4 5 5 6 6 6 7 7 7 7 7 8 9 10 11 11 12 12 13 13
15 14 12 11 10 9 8 7 5 4 3 3 2 2 2 2 3 3 3 3 2 2 2 3 4 5 5 6 6 6 6 7 8 8 8 9 9 10 11 12 12 13 13
17 15 13 12 12 11 9 8 7 5 4 4 3 3 3 3 3 2 2 2 2 2 2 3 3 4 4 5 6 6 6 7 7 8 9 9 10 10 11 12 12 13 14
17 16 15 13 13 12 11 10 8 7 6 5 5 5 4 4 3 3 3 3 3 2 2 2 3 4 4 5 5 6 6 6 7 7 8 9 9 9 10 10 11 11 12
17 16 16 14 14 14 13 12 10 9 8 8 7 6 5 5 5 4 4 4 4 3 3 3 4 4 5 5 5 5 6 7 7 8 8 9 9 10 10 10 10 11 12
18 18 17 16 15 15 14 13 12 11 10 9 9 8 7 7 7 6 6 5 5 5 5 6 6 6 7 7 7 8 8 8 8 9 9 10 10 11 11 11 12 12 13
19 19 19 17 17 16 16 15 14 14 13 12 11 10 10 10 9 9 9 8 8 8 8 8 9 9 9 10 10 11 11 11 11 12 12 13 13 13 14 14 15 15 16
19 20 19 19 18 18 18 17 16 16 15 15 14 13 13 12 12 12 12 12 11 11 12 12 12 12 13 13 14 14 14 15 15 15 16 16 17 17 17 18 18 19 20
21 20 20 20 19 19 19 18 18 18 17 17 17 16 15 15 15 15 15 15 15 15 15 15 15 16 16 17 17 18 18 19 19 19 20 20 21 21 22 22 22 23 24
21 21 21 21 21 20 20 20 19 19 19 19 19 19 19 18 19 19 18 18 19 19 19 19 19 20 20 21 21 22 22 22 23 23 24 24 24 25 25 26 26 27 28
21 21 20 20 21 21 21 21 21 21 21 21 21 21 21 21 21 22 22 22 22 22 23 23 23 23 23 24 24 25 25 26 26 27 27 27 28 29 29 30 30 31 32
20 20 20 20 20 20 21 21 22 22 23 23 23 23 23 23 24 24 25 25 25 25 26 26 26 27 27 27 27 28 28 28 29 29 30 31 32 33 33 33 34 35 36
18 19 20 20 20 19 20 21 22 23 23 24 25 25 25 25 26 26 26 27 28 28 29 29 29 29 30 30 30 30 31 32 33 33 34 35 36 36 37 38 38 39 40
17 18 19 20 19 19 20 21 22 23 24 24 25 26 26 26 27 27 28 28 29 29 30 30 30 31 31 32 33 34 34 35 36 37 37 38 39 39 40 41 42 43 44
16 18 19 19 19 19 21 22 23 23 24 24 24 25 26 27 27 28 29 30 30 31 31 32 32 33 33 34 35 36 37 38 39 40 40 41 42 43 44 45 46 47 48
16 16 17 18 19 20 21 22 23 23 23 24 25 25 26 27 29 29 30 31 32 33 34 34 35 36 36 37 37 39 40 41 42 42 43 45 46 47 48 49 50 51 51
15 16 17 18 19 20 21 22 23 24 24 25 26 27 28 29 30 31 32 33 33 35 36 37 38 39 40 40 41 42 43 44 45 46 48 49 50 51 52 53 54 54 55
16 17 18 18 19 20 20 21 22 23 24 25 27 28 30 31 31 32 33 35 36 38 38 39 40 41 43 44 45 46 46 48 49 50 51 53 54 55 55 57 58 58 59
15 17 17 18 20 21 21 21 22 24 25 27 28 29 30 32 33 34 35 37 38 39 40 42 43 44 46 47 48 49 50 52 53 54 54 55 55 57 58 60 62 63 64
18 18 18 18 19 20 20 22 24 26 27 28 30 31 32 34 35 37 39 40 41 42 44 45 47 48 50 50 52 53 54 55 56 57 57 58 59 60 61 63 65 66 67
20 20 19 20 21 22 23 24 26 27 29 30 32 33 35 37 39 41 42 43 44 46 46 48 50 51 52 53 54 55 56 57 59 60 61 62 63 64 64 65 66 67 68
Wind_Direction
241 252 262 270 272 272 284 303 297 288 278 268 267 256 248 234 237 243 245 237 229 229 231 233 232 231 230 231 234 233 233 236 239 242 245 246 247 248 252 258 265 271 273
232 243 253 256 256 259 272 286 286 278 268 263 262 250 257 245 252 257 253 246 236 233 234 238 237 235 237 237 238 239 241 242 242 243 247 249 249 250 253 258 264 267 270
228 235 242 248 253 254 266 278 277 271 267 261 261 259 258 261 268 258 248 246 238 235 240 243 238 235 235 234 236 242 245 245 243 246 248 249 250 251 254 258 262 266 268
226 229 234 242 251 254 259 263 265 263 264 258 258 263 260 263 270 256 253 245 238 233 234 240 233 231 231 233 239 244 247 245 247 251 253 252 251 252 255 257 261 265 267
223 226 230 237 244 251 255 258 266 267 262 256 251 253 255 263 270 271 252 242 235 234 232 234 230 231 233 239 245 249 249 247 249 254 257 256 254 255 256 259 261 264 266
221 224 227 234 240 245 248 250 258 262 252 247 249 251 257 265 271 271 253 242 236 233 226 227 231 233 240 244 250 256 255 251 253 258 263 263 260 258 259 261 262 265 267
218 221 226 231 235 239 241 242 244 245 241 237 241 247 258 261 258 254 239 230 220 215 218 232 239 246 249 250 256 260 260 260 260 262 266 267 267 264 263 262 264 265 267
218 220 226 230 231 235 236 237 236 237 238 234 236 243 251 256 251 241 228 213 206 214 230 240 246 259 258 257 258 261 267 269 268 268 268 268 271 271 270 270 270 268 267
219 221 225 228 229 234 237 236 234 235 235 236 238 245 249 248 248 243 233 226 224 227 238 251 260 266 270 272 273 270 271 272 274 277 274 272 272 273 274 275 275 273 271
221 225 226 229 232 235 236 235 233 235 236 238 240 246 249 248 245 243 242 242 241 246 253 259 268 270 273 274 277 278 277 278 278 279 277 275 274 275 274 274 276 276 275
224 227 228 230 232 234 235 235 235 236 237 240 243 246 248 247 245 243 242 245 252 259 264 269 272 274 274 273 274 277 279 280 281 282 283 282 280 279 277 277 278 278 278
226 228 229 230 232 234 236 237 237 237 239 242 244 247 249 249 248 248 249 252 257 264 268 270 272 273 273 273 274 274 274 276 278 278 279 280 279 278 277 277 278 279 279
228 228 230 231 233 236 238 238 239 240 241 244 245 248 250 251 251 252 255 258 262 267 271 273 274 274 274 274 274 274 275 275 275 276 277 277 276 275 275 275 277 278 278
229 228 231 234 236 239 240 240 242 243 244 247 249 250 252 253 254 255 257 260 264 267 271 273 274 275 277 277 277 276 276 276 276 276 276 276 275 276 275 276 277 278 277
230 230 233 237 240 242 243 244 244 245 247 249 251 253 255 256 256 257 258 261 264 267 270 272 273 274 275 276 276 275 274 275 275 275 276 276 276 276 276 276 276 276 276
230 232 234 238 241 243 244 246 247 248 249 251 253 255 256 258 259 260 261 263 264 267 270 272 273 273 273 275 275 275 274 275 275 275 276 276 275 275 275 275 275 276 276
232 233 235 239 243 245 246 247 249 251 252 253 255 256 258 259 260 261 263 264 265 268 270 271 273 272 272 274 274 274 274 274 274 275 275 275 276 276 275 275 275 276 276
235 235 238 241 244 246 248 250 251 255 256 257 258 259 259 261 262 263 264 265 266 269 270 271 272 272 272 273 273 273 274 274 274 274 275 275 275 275 275 275 275 276 276
239 239 240 241 243 246 249 253 257 258 258 259 261 261 262 264 264 265 265 266 267 269 271 271 271 272 272 272 273 273 274 275 275 276 276 276 276 276 276 276 276 276 276
243 243 243 244 247 249 252 256 259 262 261 262 264 266 267 267 267 266 267 268 269 271 272 272 273 273 273 274 274 275 275 276 276 276 276 277 277 277 277 277 277 277 277
246 247 246 248 251 255 257 259 260 261 262 263 265 266 267 269 269 268 269 270 270 272 273 273 274 274 275 276 276 276 277 276 276 277 278 277 278 278 278 278 277 277 277
251 250 250 253 257 260 264 267 266 265 264 265 265 267 268 269 271 271 271 271 272 274 275 275 275 275 276 277 277 278 278 278 278 278 279 279 279 279 279 279 278 278 278
258 255 255 258 260 262 265 266 265 267 268 267 268 268 269 270 272 272 273 273 275 276 278 278 277 278 278 278 278 279 279 279 279 279 280 280 280 280 280 280 280 279 279
258 258 259 261 264 266 267 267 268 268 269 270 271 272 274 274 274 274 276 277 277 278 278 278 279 279 278 278 278 279 279 280 280 281 281 280 280 280 281 281 281 281 281
262 262 262 263 265 268 271 273 273 272 273 274 275 274 275 276 278 278 279 278 279 279 280 280 280 280 280 279 279 280 280 281 281 282 281 281 281 281 281 282 282 282 282
263 265 266 266 268 271 273 275 276 276 277 278 278 278 278 279 281 281 281 281 280 280 281 281 281 281 281 281 281 282 283 283 283 283 282 282 282 282 282 283 284 284 284
Height
5882 5883 5884 5884 5885 5885 5886 5886 5885 5885 5886 5886 5886 5886 5887 5887 5888 5888 5888 5888 5889 5889 5890 5890 5891 5891 5892 5893 5893 5894 5895 5895 5896 5897 5898 5898 5899 5899 5900 5901 5901 5902 5902
5880 5882 5883 5884 5884 5884 5885 5885 5885 5885 5885 5885 5886 5886 5886 5887 5887 5887 5887 5887 5888 5888 5889 5889 5890 5890 5891 5892 5892 5893 5893 5894 5894 5895 5896 5897 5897 5898 5898 5899 5899 5900 5900
5879 5880 5881 5882 5883 5884 5884 5884 5884 5884 5885 5885 5885 5885 5886 5886 5886 5886 5887 5887 5887 5887 5888 5888 5889 5889 5890 5890 5891 5891 5892 5892 5893 5893 5894 5894 5895 5896 5896 5897 5897 5898 5898
5877 5879 5880 5881 5882 5883 5884 5884 5884 5884 5884 5884 5885 5885 5885 5885 5885 5886 5886 5886 5886 5887 5887 5887 5887 5888 5889 5889 5889 5890 5890 5890 5891 5891 5892 5892 5893 5894 5894 5895 5895 5896 5896
5875 5877 5878 5880 5881 5882 5883 5883 5883 5884 5884 5884 5884 5884 5884 5885 5885 5885 5885 5885 5886 5886 5886 5887 5887 5887 5888 5888 5888 5888 5889 5889 5889 5890 5890 5890 5891 5891 5892 5892 5893 5893 5894
5873 5875 5876 5878 5879 5881 5882 5882 5882 5883 5883 5884 5884 5884 5884 5884 5884 5885 5885 5885 5885 5885 5886 5886 5886 5887 5887 5887 5887 5887 5887 5887 5888 5888 5888 5888 5889 5889 5889 5890 5890 5890 5891
5870 5873 5875 5876 5878 5879 5880 5881 5882 5882 5882 5883 5883 5884 5884 5884 5884 5884 5884 5884 5885 5885 5885 5885 5886 5886 5886 5886 5886 5886 5886 5886 5886 5886 5887 5887 5887 5887 5887 5887 5887 5888 5888
5868 5870 5873 5874 5876 5878 5879 5880 5881 5881 5882 5882 5883 5883 5883 5884 5884 5884 5884 5884 5884 5885 5885 5885 5885 5885 5885 5885 5885 5885 5885 5885 5885 5885 5885 5885 5885 5885 5885 5885 5885 5885 5885
5866 5868 5870 5872 5874 5876 5877 5878 5879 5880 5881 5881 5882 5883 5883 5883 5883 5884 5883 5884 5884 5884 5884 5884 5884 5884 5884 5884 5884 5884 5884 5884 5884 5884 5883 5883 5883 5883 5883 5883 5882 5882 5882
5863 5865 5868 5870 5872 5873 5875 5876 5878 5878 5879 5880 5880 5881 5882 5882 5883 5883 5883 5883 5883 5883 5884 5884 5883 5883 5883 5883 5883 5883 5883 5883 5882 5882 5882 5881 5881 5881 5881 5881 5880 5880 5880
5860 5863 5865 5867 5869 5871 5873 5874 5875 5876 5878 5878 5879 5880 5880 5881 5881 5882 5882 5882 5882 5882 5882 5882 5882 5882 5882 5881 5881 5881 5881 5881 5881 5880 5880 5880 5879 5879 5878 5878 5878 5877 5877
5857 5860 5862 5864 5866 5868 5870 5871 5873 5874 5875 5876 5877 5878 5879 5879 5879 5880 5880 5880 5881 5881 5881 5880 5880 5880 5880 5879 5879 5879 5879 5878 5878 5878 5877 5877 5876 5876 5876 5875 5875 5874 5873
5854 5856 5859 5861 5863 5865 5867 5868 5870 5871 5873 5874 5875 5875 5876 5877 5877 5878 5878 5878 5878 5878 5878 5878 5878 5877 5877 5877 5876 5876 5876 5875 5875 5874 5874 5873 5873 5872 5872 5871 5871 5870 5869
5850 5852 5855 5857 5859 5861 5863 5865 5866 5868 5869 5870 5872 5872 5873 5873 5874 5875 5875 5875 5875 5875 5875 5874 5874 5874 5873 5873 5873 5872 5872 5871 5870 5870 5869 5869 5868 5868 5867 5866 5865 5865 5864
5846 5848 5851 5853 5855 5857 5859 5861 5863 5864 5865 5867 5868 5869 5869 5870 5870 5871 5871 5871 5872 5871 5871 5870 5870 5869 5869 5868 5868 5867 5866 5866 5865 5865 5864 5863 5863 5862 5861 5860 5859 5858 5857
5842 5844 5846 5849 5851 5853 5855 5857 5858 5860 5861 5862 5863 5864 5865 5865 5866 5866 5866 5867 5867 5867 5866 5865 5865 5864 5863 5863 5862 5861 5860 5860 5859 5858 5858 5857 5856 5855 5854 5853 5852 5851 5850
5838 5840 5843 5845 5847 5849 5850 5852 5854 5855 5856 5857 5858 5859 5860 5860 5860 5861 5861 5861 5861 5861 5860 5860 5859 5858 5857 5856 5855 5854 5853 5853 5852 5851 5850 5849 5848 5846 5845 5844 5843 5842 5841
5835 5837 5839 5841 5843 5844 5846 5848 5849 5850 5851 5852 5852 5853 5853 5854 5854 5854 5855 5854 5854 5854 5853 5853 5852 5851 5850 5849 5848 5847 5846 5844 5843 5842 5841 5840 5839 5837 5836 5835 5833 5832 5831
5831 5833 5835 5836 5838 5840 5841 5843 5844 5844 5845 5845 5846 5846 5847 5847 5847 5848 5848 5847 5847 5846 5846 5845 5844 5843 5842 5841 5840 5839 5837 5836 5834 5833 5831 5830 5828 5827 5826 5824 5822 5821 5820
5828 5829 5830 5832 5834 5835 5836 5837 5838 5838 5839 5839 5840 5840 5840 5840 5840 5840 5840 5840 5840 5839 5838 5837 5836 5835 5834 5832 5831 5829 5828 5826 5824 5822 5821 5819 5817 5815 5814 5812 5810 5809 5807
5824 5825 5827 5828 5830 5830 5831 5831 5832 5832 5832 5833 5833 5833 5833 5833 5833 5832 5832 5832 5831 5830 5829 5828 5827 5825 5824 5822 5821 5819 5817 5815 5813 5811 5809 5807 5805 5803 5801 5798 5796 5794 5792
5821 5822 5823 5824 5825 5825 5826 5826 5826 5826 5826 5827 5827 5826 5826 5826 5825 5824 5824 5823 5822 5821 5820 5818 5817 5815 5813 5812 5810 5808 5806 5804 5801 5800 5796 5794 5791 5789 5786 5784 5781 5779 5777
5818 5818 5819 5820 5820 5820 5820 5820 5820 5820 5820 5820 5819 5819 5818 5817 5816 5816 5814 5813 5812 5811 5810 5808 5806 5804 5802 5800 5798 5795 5793 5790 5788 5785 5783 5780 5777 5774 5770 5767 5765 5762 5760
5814 5814 5814 5815 5815 5815 5815 5815 5815 5814 5813 5813 5812 5811 5810 5809 5808 5807 5805 5804 5802 5800 5798 5796 5794 5792 5789 5787 5784 5782 5779 5776 5773 5770 5767 5765 5762 5758 5754 5750 5747 5744 5741
5809 5809 5810 5810 5810 5810 5810 5809 5809 5808 5807 5806 5805 5803 5802 5801 5799 5797 5795 5793 5791 5789 5787 5784 5782 5779 5776 5773 5770 5767 5764 5761 5757 5754 5751 5748 5745 5742 5738 5733 5728 5725 5721
5804 5804 5804 5805 5804 5804 5804 5803 5802 5801 5799 5798 5797 5795 5793 5791 5789 5787 5784 5782 5780 5777 5775 5772 5768 5765 5762 5759 5755 5752 5748 5744 5741 5737 5734 5730 5726 5723 5720 5716 5710 5705 5701